2024-190A

Last updated on Thu Nov 21 2024 00:02:04 GMT+0000 (Coordinated Universal Time)

1 61617U 24190A 24325.34488349 .00014834 00000+0 61736-3 0 9991 2 61617 34.9904 206.9744 0005727 199.8401 160.2092 15.22915147 4323
UTC large
Height (km)
Speed (km/s)
/
Latitude / Longitude
Inclination (degrees)
Orbital Period (minutes)
Azimuth
Elevation
Range (km)
Doppler Factor

Next 0 passes for location: London (51.5072 / 0.1276)

Sorry there are no passes over London.